SCP
0 0 0 0 -0 -0 0 0 0 0 0 0 0 0 0 0 0 0 0 0 0 0 0 1 1 1 0 0 0 0 0 0 0 0 0 0 0 0 0 -0 -0 -0 -0
0 0 0 0 0 0 0 0 0 0 0 0 0 0 0 0 0 0 0 0 0 0 0 1 1 1 0 0 0 0 0 0 0 0 0 0 0 0 0 -0 -0 -0 -0
0 0 0 0 0 0 0 0 0 0 0 0 0 0 0 0 0 0 0 0 0 0 0 0 1 1 1 0 0 0 0 0 0 0 0 0 0 0 0 -0 -0 0 -0
0 0 0 0 0 0 0 0 0 0 0 0 0 0 0 0 0 0 0 0 0 0 0 0 1 1 1 0 0 0 0 0 0 0 0 0 0 0 0 0 -0 -0 0
0 0 0 0 0 0 0 0 0 0 0 0 0 0 0 0 0 0 0 0 0 0 0 0 0 1 0 0 0 0 0 0 0 0 0 0 0 0 0 0 0 0 0
1 1 1 0 1 0 0 0 0 0 0 0 0 0 0 0 0 0 0 0 0 0 0 0 0 0 0 0 0 0 0 0 0 0 0 0 0 0 0 0 0 0 0
1 1 1 2 1 1 1 0 0 0 0 0 0 0 0 0 0 0 0 0 0 -0 0 0 0 0 0 0 0 0 0 0 0 0 0 0 0 0 0 0 0 0 0
3 3 2 1 1 1 1 1 0 0 0 0 0 0 0 0 0 0 0 0 0 0 0 0 0 0 0 0 0 0 0 0 0 0 0 0 0 0 0 0 0 0 0
1 2 2 3 2 1 1 1 0 0 0 0 0 0 0 0 0 0 0 0 0 0 0 0 0 0 0 0 0 0 0 0 0 0 0 0 0 0 0 0 0 0 0
1 1 0 1 1 2 1 0 0 1 0 1 0 0 0 0 0 0 0 0 0 0 0 0 0 0 0 0 0 0 0 0 0 0 0 0 0 0 0 0 0 0 0
2 1 0 0 1 0 0 0 0 0 1 1 1 0 0 0 0 0 0 0 0 0 0 0 0 0 0 0 0 0 0 0 0 0 0 0 0 0 0 0 0 0 0
1 1 2 2 2 2 1 0 0 0 0 1 0 0 0 0 0 0 0 0 0 0 0 0 0 0 0 0 0 0 0 0 0 0 0 0 0 0 0 0 0 0 0
0 0 1 2 2 1 1 0 0 0 1 0 0 1 1 0 0 0 0 0 0 -0 0 0 0 0 0 0 0 0 0 0 0 0 0 0 0 0 0 0 0 0 0
0 0 0 0 1 1 2 2 2 1 0 0 0 1 2 1 0 0 0 0 0 0 0 0 0 0 0 0 0 0 0 0 0 0 0 0 0 0 0 0 0 0 0
0 1 1 1 0 1 1 1 2 2 1 1 0 -0 1 2 2 0 0 0 0 0 0 0 0 0 0 0 0 0 0 0 0 0 0 0 0 0 0 0 0 0 0
0 0 1 2 2 1 1 1 1 1 1 1 1 1 1 2 2 1 1 0 0 0 0 0 0 0 0 0 0 0 0 0 0 0 0 0 0 0 0 0 0 0 0
0 0 0 0 1 1 1 1 1 0 1 1 1 0 1 1 0 0 0 0 0 1 1 1 0 0 0 0 0 0 0 0 0 0 0 0 0 0 0 0 0 0 0
0 0 0 0 0 0 0 0 0 1 0 0 0 1 0 0 0 0 0 1 1 1 1 0 0 0 0 0 0 0 0 0 0 0 0 0 0 0 0 0 0 0 0
0 0 0 0 0 0 0 0 0 0 0 0 0 0 0 1 1 0 -0 1 1 1 0 0 0 0 0 0 0 0 0 0 0 0 0 0 0 0 0 0 0 0 0
0 0 0 0 0 0 0 0 0 0 0 0 0 0 0 0 1 1 -0 -0 1 1 0 0 0 0 0 0 0 0 0 0 0 0 0 0 0 0 0 0 0 0 0
0 0 0 0 0 0 0 0 0 0 0 0 0 0 0 0 0 0 1 2 2 1 0 0 0 0 0 0 0 0 0 0 0 0 0 0 0 0 0 0 0 0 0
0 0 0 0 0 0 0 -0 0 0 0 -0 -0 0 0 0 0 0 0 0 2 1 0 0 0 0 0 0 0 0 0 0 0 0 0 0 0 0 0 0 0 0 0
0 0 0 0 0 0 0 0 -0 -0 -0 -0 -0 -0 -0 -0 0 0 0 0 0 0 1 0 0 0 0 0 0 0 0 0 0 0 0 0 0 0 0 0 0 0 0
0 0 0 0 0 0 0 0 0 0 -0 -0 -0 -0 0 0 0 0 0 1 0 0 0 0 0 0 0 0 0 0 0 0 0 0 0 0 0 0 0 0 0 0 0
0 0 0 0 0 0 0 0 0 0 -0 -0 -0 -0 -0 -0 -0 0 0 0 0 0 0 0 0 0 0 0 0 0 0 0 0 0 0 0 0 0 0 0 0 0 0
0 0 0 0 0 0 0 0 0 0 -0 -0 -0 -0 -0 -0 0 0 0 0 0 0 0 0 0 0 0 0 0 0 0 0 0 0 0 0 0 0 0 0 0 0 0
Wind_Speed_500mb
56 51 47 43 36 31 25 23 16 13 9 5 6 6 7 10 13 15 19 22 19 17 21 21 25 26 26 27 26 29 30 26 24 23 18 19 21 28 32 34 32 29 27
58 57 53 49 42 35 27 27 23 20 18 18 15 15 14 17 14 16 16 18 24 21 20 23 24 26 25 27 24 25 32 30 26 27 25 25 23 25 31 35 34 32 33
61 59 58 55 49 41 36 33 30 26 26 26 21 19 21 24 18 16 17 18 19 22 20 19 23 25 24 23 25 23 30 35 32 29 28 27 29 27 29 34 36 37 36
66 62 61 61 55 48 44 42 36 35 31 31 31 29 25 24 24 20 20 18 18 20 21 19 21 24 23 22 26 28 26 33 36 34 31 28 32 31 30 34 36 39 40
72 69 66 64 59 53 52 49 44 41 40 38 38 38 34 30 30 28 25 21 17 15 18 20 21 26 21 19 22 27 26 25 28 33 32 31 33 34 32 34 36 39 42
64 61 66 65 56 56 50 52 49 44 43 41 40 42 42 38 41 37 29 22 21 13 14 19 24 28 28 21 27 32 32 31 29 30 33 32 34 35 35 35 36 40 43
57 55 63 56 48 57 52 46 41 45 47 46 45 47 44 41 46 49 35 26 21 14 20 28 31 32 33 30 28 31 36 30 32 32 35 37 35 34 37 38 37 40 44
71 60 62 59 51 59 54 51 44 46 49 49 45 46 42 44 30 32 44 23 17 23 25 32 35 31 33 34 30 32 34 36 34 38 35 36 33 32 37 41 40 40 45
67 76 63 59 52 63 59 59 50 47 49 50 49 39 16 18 26 34 35 29 45 39 41 40 35 32 31 31 31 32 32 33 36 41 33 33 34 30 34 43 44 41 44
75 66 89 125 53 59 60 71 62 45 43 45 45 52 54 61 54 39 42 34 53 49 41 44 42 39 34 34 33 30 29 31 31 33 34 31 29 34 34 40 44 44 43
47 45 53 63 106 81 65 57 58 46 39 37 46 45 56 68 62 71 69 55 34 38 44 42 48 46 36 37 37 33 30 30 29 25 34 34 33 36 32 34 41 43 44
52 55 54 54 52 83 77 73 60 53 48 40 53 59 57 66 61 56 61 71 59 58 68 56 49 50 36 40 46 40 34 29 28 32 36 38 37 36 35 36 38 42 45
60 46 52 61 64 66 77 94 98 93 88 98 74 62 69 66 68 76 76 64 72 91 82 64 53 45 41 40 45 46 38 34 32 35 36 39 40 40 38 39 39 43 46
54 50 49 57 66 68 70 72 78 89 106 120 99 73 59 65 76 79 79 70 76 83 91 84 66 58 49 38 41 46 41 37 37 37 38 40 41 41 39 38 42 44 44
45 46 47 44 42 44 43 57 67 65 75 92 101 108 94 85 76 76 80 83 72 70 98 92 64 59 46 39 35 43 42 40 40 39 41 41 40 37 34 36 40 43 42
28 26 29 31 36 42 42 42 52 52 54 65 81 89 87 80 86 104 91 87 88 91 87 79 57 59 54 40 37 39 39 41 43 42 43 44 41 39 36 36 39 42 41
32 35 34 33 39 41 42 43 50 57 63 56 56 56 59 65 74 85 106 83 74 75 68 74 71 64 62 48 41 40 38 41 44 42 46 46 43 41 38 38 39 42 41
37 42 38 36 36 40 45 49 49 49 56 62 57 54 63 63 59 63 65 64 66 65 67 57 62 65 71 51 43 42 38 41 42 44 46 46 41 42 39 39 41 44 42
42 42 39 39 39 37 41 46 46 46 53 49 54 55 56 53 58 64 63 65 71 67 65 61 55 61 64 51 42 44 41 41 44 44 43 40 37 38 38 38 41 44 43
38 39 35 32 31 36 36 35 37 38 45 47 49 49 52 53 52 56 66 79 80 70 67 54 55 55 63 48 43 47 47 39 41 39 38 36 37 37 38 40 42 42 43
44 41 42 42 41 40 38 35 36 41 46 52 53 55 55 56 51 55 56 67 67 62 62 51 61 57 62 51 51 52 48 38 39 38 35 35 35 33 34 37 43 43 42
59 59 57 54 52 53 48 45 49 52 53 62 62 63 63 56 64 57 60 61 57 64 61 57 68 59 61 51 49 45 40 43 45 41 36 34 33 31 29 32 36 38 40
69 71 66 62 62 63 60 60 59 59 62 68 68 67 67 64 56 58 61 56 48 54 54 53 62 57 52 44 41 42 46 43 43 38 30 33 32 30 25 26 32 37 39
83 76 73 72 71 71 70 64 61 63 67 72 72 68 67 67 59 60 57 57 50 53 53 52 51 39 33 36 36 31 29 32 40 38 36 40 32 29 22 26 25 32 36
77 82 81 81 81 80 75 67 65 69 74 78 79 71 62 64 62 55 55 58 57 53 49 45 36 41 38 39 33 31 37 40 42 42 41 38 36 29 24 28 30 29 32
80 82 85 84 85 86 81 72 68 71 75 82 83 79 60 60 60 48 53 56 58 48 48 41 44 47 40 36 31 32 30 36 38 42 43 38 35 26 18 30 36 31 29
Wind_Direction_500mb
217 218 221 224 227 234 237 236 247 263 264 239 233 270 319 340 341 328 336 345 337 338 325 323 314 308 299 297 304 274 270 275 277 267 267 272 259 242 243 247 250 249 239
224 224 225 228 230 235 236 235 246 251 260 269 275 290 309 314 334 340 331 342 339 339 325 324 313 306 286 288 295 275 269 268 274 272 265 267 266 254 250 249 250 247 241
232 231 232 232 233 236 239 244 250 256 265 275 282 287 303 309 319 332 328 329 335 334 327 317 319 308 289 287 295 287 266 266 268 274 270 263 266 260 257 253 248 247 242
236 237 236 237 237 238 241 246 252 261 267 276 287 291 295 302 309 310 307 316 328 327 326 316 321 305 294 283 285 287 280 271 265 270 274 265 264 260 260 256 251 247 244
232 235 238 238 240 236 242 246 251 259 269 276 284 288 293 291 292 288 300 298 297 305 318 310 319 305 294 274 275 284 285 290 271 270 270 268 260 262 261 258 257 250 246
232 233 234 236 237 245 238 241 246 253 266 273 279 279 281 284 286 294 294 290 296 286 297 302 314 307 285 264 270 284 286 282 277 277 273 267 261 260 261 262 260 254 247
234 228 239 234 231 241 243 249 250 254 259 266 277 275 276 274 283 285 273 292 296 324 326 319 308 301 294 270 271 274 280 295 279 285 280 266 261 257 259 261 262 256 249
232 237 244 247 240 249 252 254 256 260 263 264 269 283 292 290 292 294 271 288 289 309 321 324 313 304 296 280 279 277 277 274 278 282 276 270 264 260 260 261 261 258 251
236 241 235 246 240 255 260 264 267 267 271 272 268 260 267 264 297 312 296 299 308 296 300 315 318 307 301 280 278 279 277 277 277 282 280 270 267 266 266 261 260 257 251
245 253 246 256 267 258 266 266 268 266 273 275 268 263 264 265 276 286 294 280 284 290 287 293 306 306 294 283 277 276 277 271 278 287 284 280 269 271 273 259 254 255 250
243 252 242 238 237 259 253 259 269 273 275 277 276 271 275 273 276 269 276 288 282 292 304 298 301 302 288 283 274 275 267 273 278 279 274 285 285 280 278 264 251 250 248
237 236 237 239 236 229 238 262 272 279 283 279 286 276 276 273 277 274 281 292 293 304 312 297 292 297 283 285 277 269 262 267 271 275 273 280 283 279 276 268 253 249 249
256 254 248 246 246 244 245 248 267 274 279 271 275 274 274 273 280 277 275 283 288 296 302 300 291 293 287 286 276 269 261 258 267 270 280 283 281 277 276 265 259 250 250
252 253 256 256 258 258 262 255 255 259 263 269 265 257 272 276 284 279 281 286 292 286 294 292 291 287 293 286 277 269 258 252 265 271 277 284 283 282 277 265 259 250 247
247 247 249 247 245 244 252 257 255 265 269 264 265 266 263 265 269 279 278 282 287 280 287 292 287 289 296 282 277 265 256 251 257 266 273 280 284 281 277 269 258 248 245
245 245 244 243 240 242 246 255 256 262 266 267 265 261 260 264 263 265 278 288 285 279 279 281 278 287 295 280 279 257 251 251 252 262 271 279 280 277 274 269 257 247 245
240 243 246 246 247 246 244 247 253 259 259 263 266 271 267 259 265 265 263 276 283 281 274 297 283 286 285 279 273 250 251 252 253 262 272 280 279 275 274 268 257 249 246
266 255 256 262 264 266 269 266 264 256 261 261 264 265 264 262 259 263 264 270 276 280 285 286 290 288 281 272 268 249 249 249 251 261 272 277 274 274 273 268 258 250 244
263 251 257 267 273 278 279 273 274 271 271 268 267 270 268 270 262 261 270 272 276 280 289 281 273 278 266 263 257 242 247 244 249 262 275 275 273 274 271 265 258 248 243
266 263 261 263 273 281 289 281 277 281 285 280 271 267 264 262 267 271 265 263 272 276 288 277 272 261 258 264 254 238 243 237 252 266 272 272 275 283 275 262 255 247 241
266 260 260 271 281 288 296 291 290 296 302 305 285 274 267 261 261 261 266 267 274 273 279 267 264 252 254 254 244 236 239 240 253 261 268 270 278 281 279 267 252 244 238
264 260 258 265 273 284 294 295 297 298 305 309 307 287 278 272 260 264 264 263 268 271 272 266 259 252 256 251 245 243 241 242 249 261 265 269 276 287 285 268 251 238 235
260 257 260 263 271 281 288 295 298 300 302 307 309 300 281 272 269 267 272 270 266 266 261 263 255 255 254 253 235 237 249 242 258 262 266 266 276 286 282 270 249 235 234
253 256 261 266 272 279 283 285 293 295 300 305 306 300 280 273 270 268 276 277 267 267 255 246 248 254 261 248 251 246 248 259 255 253 258 262 274 279 273 263 260 236 235
255 254 258 264 269 273 273 277 285 291 297 303 305 300 286 272 272 268 271 277 271 262 242 242 242 253 245 241 232 232 237 239 244 252 253 257 267 272 268 254 259 248 241
263 264 262 262 269 270 267 267 274 284 295 304 304 299 286 270 272 270 264 269 264 244 225 237 242 246 223 224 237 241 238 242 249 256 259 251 259 258 259 261 249 250 248
Wind_Speed_850mb
56 51 47 43 36 31 25 23 16 13 9 5 6 6 7 10 13 15 19 22 19 17 21 21 25 26 26 27 26 29 30 26 24 23 18 19 21 28 32 34 32 29 27
58 57 53 49 42 35 27 27 23 20 18 18 15 15 14 17 14 16 16 18 24 21 20 23 24 26 25 27 24 25 32 30 26 27 25 25 23 25 31 35 34 32 33
61 59 58 55 49 41 36 33 30 26 26 26 21 19 21 24 18 16 17 18 19 22 20 19 23 25 24 23 25 23 30 35 32 29 28 27 29 27 29 34 36 37 36
66 62 61 61 55 48 44 42 36 35 31 31 31 29 25 24 24 20 20 18 18 20 21 19 21 24 23 22 26 28 26 33 36 34 31 28 32 31 30 34 36 39 40
72 69 66 64 59 53 52 49 44 41 40 38 38 38 34 30 30 28 25 21 17 15 18 20 21 26 21 19 22 27 26 25 28 33 32 31 33 34 32 34 36 39 42
64 61 66 65 56 56 50 52 49 44 43 41 40 42 42 38 41 37 29 22 21 13 14 19 24 28 28 21 27 32 32 31 29 30 33 32 34 35 35 35 36 40 43
57 55 63 56 48 57 52 46 41 45 47 46 45 47 44 41 46 49 35 26 21 14 20 28 31 32 33 30 28 31 36 30 32 32 35 37 35 34 37 38 37 40 44
71 60 62 59 51 59 54 51 44 46 49 49 45 46 42 44 30 32 44 23 17 23 25 32 35 31 33 34 30 32 34 36 34 38 35 36 33 32 37 41 40 40 45
67 76 63 59 52 63 59 59 50 47 49 50 49 39 16 18 26 34 35 29 45 39 41 40 35 32 31 31 31 32 32 33 36 41 33 33 34 30 34 43 44 41 44
75 66 89 125 53 59 60 71 62 45 43 45 45 52 54 61 54 39 42 34 53 49 41 44 42 39 34 34 33 30 29 31 31 33 34 31 29 34 34 40 44 44 43
47 45 53 63 106 81 65 57 58 46 39 37 46 45 56 68 62 71 69 55 34 38 44 42 48 46 36 37 37 33 30 30 29 25 34 34 33 36 32 34 41 43 44
52 55 54 54 52 83 77 73 60 53 48 40 53 59 57 66 61 56 61 71 59 58 68 56 49 50 36 40 46 40 34 29 28 32 36 38 37 36 35 36 38 42 45
60 46 52 61 64 66 77 94 98 93 88 98 74 62 69 66 68 76 76 64 72 91 82 64 53 45 41 40 45 46 38 34 32 35 36 39 40 40 38 39 39 43 46
54 50 49 57 66 68 70 72 78 89 106 120 99 73 59 65 76 79 79 70 76 83 91 84 66 58 49 38 41 46 41 37 37 37 38 40 41 41 39 38 42 44 44
45 46 47 44 42 44 43 57 67 65 75 92 101 108 94 85 76 76 80 83 72 70 98 92 64 59 46 39 35 43 42 40 40 39 41 41 40 37 34 36 40 43 42
28 26 29 31 36 42 42 42 52 52 54 65 81 89 87 80 86 104 91 87 88 91 87 79 57 59 54 40 37 39 39 41 43 42 43 44 41 39 36 36 39 42 41
32 35 34 33 39 41 42 43 50 57 63 56 56 56 59 65 74 85 106 83 74 75 68 74 71 64 62 48 41 40 38 41 44 42 46 46 43 41 38 38 39 42 41
37 42 38 36 36 40 45 49 49 49 56 62 57 54 63 63 59 63 65 64 66 65 67 57 62 65 71 51 43 42 38 41 42 44 46 46 41 42 39 39 41 44 42
42 42 39 39 39 37 41 46 46 46 53 49 54 55 56 53 58 64 63 65 71 67 65 61 55 61 64 51 42 44 41 41 44 44 43 40 37 38 38 38 41 44 43
38 39 35 32 31 36 36 35 37 38 45 47 49 49 52 53 52 56 66 79 80 70 67 54 55 55 63 48 43 47 47 39 41 39 38 36 37 37 38 40 42 42 43
44 41 42 42 41 40 38 35 36 41 46 52 53 55 55 56 51 55 56 67 67 62 62 51 61 57 62 51 51 52 48 38 39 38 35 35 35 33 34 37 43 43 42
59 59 57 54 52 53 48 45 49 52 53 62 62 63 63 56 64 57 60 61 57 64 61 57 68 59 61 51 49 45 40 43 45 41 36 34 33 31 29 32 36 38 40
69 71 66 62 62 63 60 60 59 59 62 68 68 67 67 64 56 58 61 56 48 54 54 53 62 57 52 44 41 42 46 43 43 38 30 33 32 30 25 26 32 37 39
83 76 73 72 71 71 70 64 61 63 67 72 72 68 67 67 59 60 57 57 50 53 53 52 51 39 33 36 36 31 29 32 40 38 36 40 32 29 22 26 25 32 36
77 82 81 81 81 80 75 67 65 69 74 78 79 71 62 64 62 55 55 58 57 53 49 45 36 41 38 39 33 31 37 40 42 42 41 38 36 29 24 28 30 29 32
80 82 85 84 85 86 81 72 68 71 75 82 83 79 60 60 60 48 53 56 58 48 48 41 44 47 40 36 31 32 30 36 38 42 43 38 35 26 18 30 36 31 29
Wind_Direction_850mb
217 218 221 224 227 234 237 236 247 263 264 239 233 270 319 340 341 328 336 345 337 338 325 323 314 308 299 297 304 274 270 275 277 267 267 272 259 242 243 247 250 249 239
224 224 225 228 230 235 236 235 246 251 260 269 275 290 309 314 334 340 331 342 339 339 325 324 313 306 286 288 295 275 269 268 274 272 265 267 266 254 250 249 250 247 241
232 231 232 232 233 236 239 244 250 256 265 275 282 287 303 309 319 332 328 329 335 334 327 317 319 308 289 287 295 287 266 266 268 274 270 263 266 260 257 253 248 247 242
236 237 236 237 237 238 241 246 252 261 267 276 287 291 295 302 309 310 307 316 328 327 326 316 321 305 294 283 285 287 280 271 265 270 274 265 264 260 260 256 251 247 244
232 235 238 238 240 236 242 246 251 259 269 276 284 288 293 291 292 288 300 298 297 305 318 310 319 305 294 274 275 284 285 290 271 270 270 268 260 262 261 258 257 250 246
232 233 234 236 237 245 238 241 246 253 266 273 279 279 281 284 286 294 294 290 296 286 297 302 314 307 285 264 270 284 286 282 277 277 273 267 261 260 261 262 260 254 247
234 228 239 234 231 241 243 249 250 254 259 266 277 275 276 274 283 285 273 292 296 324 326 319 308 301 294 270 271 274 280 295 279 285 280 266 261 257 259 261 262 256 249
232 237 244 247 240 249 252 254 256 260 263 264 269 283 292 290 292 294 271 288 289 309 321 324 313 304 296 280 279 277 277 274 278 282 276 270 264 260 260 261 261 258 251
236 241 235 246 240 255 260 264 267 267 271 272 268 260 267 264 297 312 296 299 308 296 300 315 318 307 301 280 278 279 277 277 277 282 280 270 267 266 266 261 260 257 251
245 253 246 256 267 258 266 266 268 266 273 275 268 263 264 265 276 286 294 280 284 290 287 293 306 306 294 283 277 276 277 271 278 287 284 280 269 271 273 259 254 255 250
243 252 242 238 237 259 253 259 269 273 275 277 276 271 275 273 276 269 276 288 282 292 304 298 301 302 288 283 274 275 267 273 278 279 274 285 285 280 278 264 251 250 248
237 236 237 239 236 229 238 262 272 279 283 279 286 276 276 273 277 274 281 292 293 304 312 297 292 297 283 285 277 269 262 267 271 275 273 280 283 279 276 268 253 249 249
256 254 248 246 246 244 245 248 267 274 279 271 275 274 274 273 280 277 275 283 288 296 302 300 291 293 287 286 276 269 261 258 267 270 280 283 281 277 276 265 259 250 250
252 253 256 256 258 258 262 255 255 259 263 269 265 257 272 276 284 279 281 286 292 286 294 292 291 287 293 286 277 269 258 252 265 271 277 284 283 282 277 265 259 250 247
247 247 249 247 245 244 252 257 255 265 269 264 265 266 263 265 269 279 278 282 287 280 287 292 287 289 296 282 277 265 256 251 257 266 273 280 284 281 277 269 258 248 245
245 245 244 243 240 242 246 255 256 262 266 267 265 261 260 264 263 265 278 288 285 279 279 281 278 287 295 280 279 257 251 251 252 262 271 279 280 277 274 269 257 247 245
240 243 246 246 247 246 244 247 253 259 259 263 266 271 267 259 265 265 263 276 283 281 274 297 283 286 285 279 273 250 251 252 253 262 272 280 279 275 274 268 257 249 246
266 255 256 262 264 266 269 266 264 256 261 261 264 265 264 262 259 263 264 270 276 280 285 286 290 288 281 272 268 249 249 249 251 261 272 277 274 274 273 268 258 250 244
263 251 257 267 273 278 279 273 274 271 271 268 267 270 268 270 262 261 270 272 276 280 289 281 273 278 266 263 257 242 247 244 249 262 275 275 273 274 271 265 258 248 243
266 263 261 263 273 281 289 281 277 281 285 280 271 267 264 262 267 271 265 263 272 276 288 277 272 261 258 264 254 238 243 237 252 266 272 272 275 283 275 262 255 247 241
266 260 260 271 281 288 296 291 290 296 302 305 285 274 267 261 261 261 266 267 274 273 279 267 264 252 254 254 244 236 239 240 253 261 268 270 278 281 279 267 252 244 238
264 260 258 265 273 284 294 295 297 298 305 309 307 287 278 272 260 264 264 263 268 271 272 266 259 252 256 251 245 243 241 242 249 261 265 269 276 287 285 268 251 238 235
260 257 260 263 271 281 288 295 298 300 302 307 309 300 281 272 269 267 272 270 266 266 261 263 255 255 254 253 235 237 249 242 258 262 266 266 276 286 282 270 249 235 234
253 256 261 266 272 279 283 285 293 295 300 305 306 300 280 273 270 268 276 277 267 267 255 246 248 254 261 248 251 246 248 259 255 253 258 262 274 279 273 263 260 236 235
255 254 258 264 269 273 273 277 285 291 297 303 305 300 286 272 272 268 271 277 271 262 242 242 242 253 245 241 232 232 237 239 244 252 253 257 267 272 268 254 259 248 241
263 264 262 262 269 270 267 267 274 284 295 304 304 299 286 270 272 270 264 269 264 244 225 237 242 246 223 224 237 241 238 242 249 256 259 251 259 258 259 261 249 250 248